Regional Weather Roundup
Issued by NWS

Home | Current Version | Previous Version | Graphics & Text | Print | Product List | Glossary On
Versions: 1 2 3 4 5 6 7 8 9 10 11 12 13 14 15 16 17 18 19 20 21 22 23 24 25 26 27 28 29 30 31 32 33 34 35 36 37 38 39 40 41 42 43 44 45 46 47 48 49 50
000
ASUS43 KLMK 311502
RWRKY
KENTUCKY REGIONAL WEATHER ROUNDUP
NATIONAL WEATHER SERVICE LOUISVILLE KY
1100 AM EDT TUE MAY 31 2016

NOTE "FAIR" INDICATES FEW OR NO CLOUDS BELOW 12,000 FEET
WITH NO SIGNIFICANT WEATHER AND/OR OBSTRUCTIONS TO VISIBILITY.

KYZ001>023-026-027-061>063-070>075-311600-
WESTERN AND SOUTH CENTRAL KENTUCKY

CITY           SKY/WX    TMP DP  RH WIND       PRES   REMARKS
PADUCAH        CLOUDY    80  63  55 SE5       29.97S
HENDERSON      CLOUDY    79  63  57 SE3       29.96F
OWENSBORO      MOSUNNY   83  64  52 SE8       29.98F
HOPKINSVILLE   NOT AVBL
BOWLING GREEN  CLOUDY    78  65  63 E5        30.00S
GLASGOW        NOT AVBL
$$

KYZ024-025-028>034-038-045-046-053-311600-
NORTH CENTRAL KENTUCKY

CITY           SKY/WX    TMP DP  RH WIND       PRES   REMARKS
LOUISVILLE/SDF CLOUDY    82  60  47 CALM      30.00F
LOUISVILLE/LOU CLOUDY    82  63  52 CALM      30.01F
FORT KNOX      NOT AVBL
$$

KYZ035>037-039>044-047>052-055>060-089>105-311600-
NORTHEAST KENTUCKY

CITY           SKY/WX    TMP DP  RH WIND       PRES   REMARKS
LEXINGTON      SUNNY     82  61  48 VRB5      30.03F
COVINGTON      PTSUNNY   83  60  45 CALM      30.02S
FRANKFORT      MOSUNNY   81  60  48 E3        30.01F
$$

KYZ054-064>069-076>088-106>120-311600-
SOUTHEAST KENTUCKY

CITY           SKY/WX    TMP DP  RH WIND       PRES   REMARKS
JACKSON        CLOUDY    78  64  61 CALM      30.06R
LONDON         SUNNY     79  62  56 NE7       30.04F
SOMERSET       NOT AVBL
MIDDLESBORO    SUNNY     73  66  78 CALM      30.04F
MONTICELLO     SUNNY     80  66  62 VRB7      30.03F
$$





USA.gov is the U.S. government's official web portal to all federal, state and local government web resources and services.